Details From UUWW - Vnukovo
To URMM - Mineralnyye Vody
Flight Number -
Tags Generated
Created
Modified
Stats Distance 719 nm / 1,332 km
Max Altitude 0 ft / 0 m
Waypoints 5
Social Downloads 0
Likes 0
Share VATSIM

Download

Looking for another format? Having issues loading an existing format? Contact us
Advertisement - Login to hide

Notes

Generated

Route

UUWW USMAN MOROG MD URMM

ID Type Via Altitude Latitude Longitude Leg Dist Tot Dist Heading (true) Name
O UUWW APT - 0 ft / 0 m 55.58804˚ 37.24603˚ - 0 nm - -
USMAN FIX - 0 ft / 0 m 52.03333˚ 39.73333˚ 230 nm 230 nm 157° / 159° -
MOROG FIX - 0 ft / 0 m 48.35000˚ 41.80000˚ 235 nm 465 nm 159° / 161° -
MD NDB - 0 ft / 0 m 44.25833˚ 43.00833˚ 250 nm 716 nm 168° / 169° MINERALNYYE VODY NDB
O URMM APT - 0 ft / 0 m 44.23442˚ 43.06126˚ 2 nm 719 nm 122° / 122° -

Altitude Profile

Advertisement - Login to hide

Weather


0- 5 10 15 20 25 30 35+ Temperature / ° C

Clouds and Precipitation
Forecast for 2017-12-17 06:00 UTC. Updated an hour ago

Ground ~20,000 ft ~40,000 ft Winds

UUWW

Details ICAO UUWW (VKO)
Name VNUKOVO
Region Russia
Timezone Europe/Moscow (UTC+3.0)
Stats Elevation 685 ft / 209 m (AMSL)
Location 55.596061° 37.267664°
Runways 2
Magnetic Variation 10.960° E

METAR

UUWW 170600Z 18006MPS 9999 -SHRA SCT006 BKN030CB 08/06 Q1003 WS R24 R24/290050 NOSIG

Decode

TAF

TAF UUWW 170450Z 1706/1806 17007G13MPS 9999 OVC005 TX07/1706Z TNM00/1803Z BECMG 1706/1708 25006MPS BKN011 TEMPO 1708/1718 3100 -SHRA BKN005 BKN012CB BECMG 1713/1715 30005MPS BECMG 1718/1720 36004MPS

Decode

Departure Runways

ID Width Length Bearing (true) Bearing (mag) Surface Threshold Offset Overrun Length
02 197 ft / 60 m 9,993 ft / 3,046 m 23.36° 12.40° Asphalt 0 ft / 0 m 140 ft / 43 m
06 197 ft / 60 m 9,785 ft / 2,982 m 68.26° 57.30° Asphalt 0 ft / 0 m 250 ft / 76 m
20 197 ft / 60 m 9,993 ft / 3,046 m 203.37° 192.41° Asphalt 0 ft / 0 m 150 ft / 46 m
24 197 ft / 60 m 9,785 ft / 2,982 m 248.29° 237.33° Asphalt 0 ft / 0 m 260 ft / 79 m

URMM

Details ICAO URMM (MRV)
Name MINERALNYYE VODY
Region Russia
Timezone Europe/Moscow (UTC+3.0)
Stats Elevation 1,054 ft / 321 m (AMSL)
Location 44.225073° 43.081891°
Runways 1
Magnetic Variation 7.388° E

METAR

URMM 170600Z 12006MPS 9000 -DZ OVC006 04/03 Q1022 R12/290050 NOSIG RMK MT OBSC QFE738/0984

Decode

TAF

TAF URMM 170458Z 1706/1806 10005G12MPS 3100 BR OVC006 TX06/1711Z TN00/1803Z TEMPO 1706/1709 11003G08MPS 0300 -DZ FG OVC002 BECMG 1709/1711 9999 NSW OVC011 TEMPO 1715/1806 10003G08MPS 3100 -DZ BR

Decode

Destination Runways

ID Width Length Bearing (true) Bearing (mag) Surface Threshold Offset Overrun Length
12 197 ft / 60 m 12,766 ft / 3,891 m 122.28° 114.89° Concrete 0 ft / 0 m 240 ft / 73 m
30 197 ft / 60 m 12,766 ft / 3,891 m 302.31° 294.92° Concrete 0 ft / 0 m 250 ft / 76 m

Popular Alternatives